Regional Weather Roundup
Issued by NWS

Home | Current Version | Previous Version | Graphics & Text | Print | Product List | Glossary On
Versions: 1 2 3 4 5 6 7 8 9 10 11 12 13 14 15 16 17 18 19 20 21 22 23 24 25 26 27 28 29 30 31 32 33 34 35 36 37 38 39 40 41 42 43 44 45 46 47 48 49 50
000
ASUS43 KMKX 171721
RWRWI

WISCONSIN REGIONAL WEATHER ROUNDUP
NATIONAL WEATHER SERVICE MILWAUKEE/SULLIVAN WI
1200 PM CDT THU APR 17 2014

NOTE: "FAIR" INDICATES FEW OR NO CLOUDS BELOW 12,000 FEET WITH NO
SIGNIFICANT WEATHER AND/OR OBSTRUCTIONS TO VISIBILITY.

WIZ001-002-006>008-014>016-023>028-171800-
NORTHWEST WISCONSIN

CITY           SKY/WX    TMP DP  RH WIND       PRES   REMARKS
SUPERIOR ARPT  CLOUDY    34  25  70 N12       30.24R WCI  25
ASHLAND        CLOUDY    33  29  85 W8        30.19R WCI  26
HAYWARD        CLOUDY    31  28  89 VRB3      30.19R
SIREN          CLOUDY    32  28  83 N9        30.25R WCI  24
RICE LAKE      CLOUDY    32  29  88 NW10      30.22R WCI  24
LADYSMITH      CLOUDY    34  32  93 NW9       30.18R WCI  26
EAU CLAIRE     CLOUDY    36  32  85 NW12      30.20R WCI  28
MENOMONIE      CLOUDY    35  31  88 W13       30.23R WCI  26
NEW RICHMOND   CLOUDY    32  30  95 NW12      30.25S WCI  23
OSCEOLA        CLOUDY    33  30  87 NW7       30.29R WCI  27
$$

WIZ003>005-009-010-017-018-171800-
NORTH CENTRAL WISCONSIN

CITY           SKY/WX    TMP DP  RH WIND       PRES   REMARKS
WOODRUFF       CLOUDY    37  33  86 SW3       30.11R FOG
RHINELANDER    CLOUDY    34  31  88 SW6       30.11R FOG     WCI  29
EAGLE RIVER    CLOUDY    34  32  93 S3        30.10R
LAND O LAKES   CLOUDY    34  32  90 S5        30.11R WCI  30
PHILLIPS       CLOUDY    34  32  94 SW5       30.13R FOG     WCI  30
TOMAHAWK       CLOUDY    35  32  90 CALM      30.12R FOG
MEDFORD        CLOUDY    34  33  94 W9        30.14R FOG     WCI  27
MERRILL        CLOUDY    36  33  89 CALM      30.12S FOG
$$

WIZ029-030-035-036-043>047-171800-
CENTRAL WISCONSIN

CITY           SKY/WX    TMP DP  RH WIND       PRES   REMARKS
WAUSAU         CLOUDY    39  34  82 NW7       30.10R WCI  34
MOSINEE        CLOUDY    43  36  75 W9        30.12S
MARSHFIELD     CLOUDY    43  37  79 W16       30.12R
STEVENS POINT  CLOUDY    44  33  66 W10G16    30.12R
WAUPACA        SUNNY     54  34  47 NW9       30.10S
WAUTOMA        CLOUDY    52  38  58 W15       30.11R
WISC RAPIDS    PTSUNNY   48  35  60 W13       30.13R
CAMP DOUGLAS   CLOUDY    48  37  66 NW16      30.14R
$$

WIZ011>013-019>022-031-037>040-048>050-171800-
NORTHEAST WISCONSIN

CITY           SKY/WX    TMP DP  RH WIND       PRES   REMARKS
ANTIGO         CLOUDY    37  32  83 CALM      30.11R
STURGEON BAY   CLOUDY    39  30  70 S17       30.15S WCI  30
GREEN BAY      MOSUNNY   47  38  71 S9        30.12R
MANITOWOC      MOSUNNY   44  35  70 S14       30.14R
APPLETON       PTSUNNY   48  36  61 SW10      30.11R
CLINTONVILLE   SUNNY     46  36  66 S3        30.11R
OSHKOSH        PTSUNNY   50  37  61 SW8       30.11R
$$

WIZ032>034-041-042-053>061-171800-
SOUTHWEST WISCONSIN

CITY           SKY/WX    TMP DP  RH WIND       PRES   REMARKS
LA CROSSE      CLOUDY    43  33  68 W10       30.20R
SPARTA         CLOUDY    42  35  76 W9        30.18R
VIROQUA        CLOUDY    43  37  77 W10       30.17R
BOSCOBEL       CLOUDY    48  35  60 VRB7      30.19R
PRAIRIE DU CHI CLOUDY    46  33  62 W10       30.20R
PLATTEVILLE    FAIR      45  36  69 W12G20    30.20R
$$

WIZ056-057-062-063-064-067-068-171800-
SOUTH CENTRAL WISCONSIN

CITY           SKY/WX    TMP DP  RH WIND       PRES   REMARKS
BARABOO/DELLS  CLOUDY    51  37  58 W13       30.13R
LONE ROCK      CLOUDY    45  37  73 W13G20    30.17R
WATERTOWN      CLOUDY    45  37  73 W9        30.15R
MADISON        PTSUNNY   46  36  68 SW7       30.16R
MIDDLETON      PTSUNNY   49  36  61 W10       30.16R
MONROE         PTSUNNY   44  39  83 W15       30.17R
JANESVILLE     CLOUDY    46  36  66 W17       30.18R
$$

WIZ051-052-058>065-066-070>072-171800-
SOUTHEAST WISCONSIN

CITY           SKY/WX    TMP DP  RH WIND       PRES   REMARKS
MILWAUKEE      CLOUDY    52  36  54 SW18      30.16R
WAUKESHA       CLOUDY    46  36  66 SW14      30.15R
MILWAUKEE/TIMM CLOUDY    50  36  57 SW14G21     N/A
RACINE         MOSUNNY   54  38  54 W13G23    30.16R
BURLINGTON     CLOUDY    47  38  69 SW14      30.16R
KENOSHA        PTSUNNY   53  39  59 SW15G25   30.16R
FOND DU LAC    CLOUDY    47  36  65 SW10      30.12R
SHEBOYGAN      CLOUDY    49  36  61 SW15      30.13R
WEST BEND      CLOUDY    48  34  57 W13       30.14R
JUNEAU         CLOUDY    43  35  75 SW12      30.15R
$$

LSZ147-162-171800-
LAKE SUPERIOR

STATION/POSITION TIME  TEMP    WIND        PRES    WAVE
                       AIR SEA DIR/SP/G            HT/PER
                 (UTC) (F)     (DEG/KT/KT) (MB)    (FT/S)
DEVILS ISLAND    1700   33      CALM  /156 1022.8R
PORT WING        1600   32     340/  8/ 10 1022.4
SAXON HARBOR     1600             CALM     1021.0R
$$

LMZ867-665-643>646-171800-
LAKE MICHIGAN

STATION/POSITION TIME  TEMP    WIND        PRES    WAVE
                       AIR SEA DIR/SP/G            HT/PER
                 (UTC) (F)     (DEG/KT/KT) (MB)    (FT/S)
NORTHPORT PIER   1600   34     120/  8/ 12 1021.7S
SISTER BAY       1623   39     160/ 10/ 16   N/A
KEWAUNEE LAKESHO 1700   38     170/ 16/ 19 1021.3R
SHEBOYGAN LAKESH 1700   38     160/ 14/ 15 1021.3R
PORT WASHINGTON  1600   42     170/  6/ 11 1020.7R
MILWAUKEE LAKESH 1700   49     230/ 16/ 20   N/A
KENOSHA   LAKESH 1700   53     230/ 13/ 21   N/A
$$

TC  - TEMPERATURE IN CELSIUS
VSB - VISIBILITY IN STATUTE MILES
WCI - WIND CHILL INDEX
HX  - HEAT INDEX




USA.gov is the U.S. government's official web portal to all federal, state and local government web resources and services.